Horseshoe Bay, TX

4:38 PM MST on November 20, 2017 (GMT -0700)
Horseshoe Bay

Weather History for KDZB - December, 2013

Change the Weather History Date:

Tuesday, December 3, 2013

  Actual Average (KBMQ) Record (KBMQ)
Temperature  
Mean Temperature 64 °F -  
Max Temperature 86 °F 60 °F 84 °F (2005)
Min Temperature 41 °F 42 °F 33 °F (2006)
Degree Days  
Heating Degree Days 2    
Growing Degree Days 14 (Base 50)    
Moisture  
Dew Point 40 °F    
Average Humidity 50    
Maximum Humidity 100    
Minimum Humidity 15    
Precipitation  
Precipitation 0.00 in - - ()
Sea Level Pressure  
Sea Level Pressure 29.66 in    
Wind  
Wind Speed 1 mph (SW)    
Max Wind Speed 7 mph    
Max Gust Speed -    
Visibility 10 miles    
Events      
Averages and records for this station are not official NWS values.
T = Trace of Precipitation, MM = Missing Value Source: NWS Daily Summary

Daily Weather History Graph

Daily Weather History Graph

Search for Another Location

Airport or City:

Trip Planner

Search our weather history database for the weather conditions in past years. The results will help you decide how hot, cold, wet, or windy it might be!

Date:

Astronomy

Dec. 03, 2013 Rise Set
Actual Time 6:14 AM MST 4:32 PM MST
Civil Twilight 5:48 AM MST 4:58 PM MST
Nautical Twilight 5:18 AM MST 5:28 PM MST
Astronomical Twilight 4:49 AM MST 5:57 PM MST
Moon 6:47 AM MST (12/3) 5:35 PM MST (12/3)
Length of Visible Light 11h 09m
Length of Day
10h 17m
New Moon, 1% of the Moon is Illuminated
Dec 3
New Moon
Dec 9
First Quarter
Dec 17
Full
Dec 25
Last Quarter
Jan 1
New

Hourly Weather History & Observations

Time (MST) Temp. Dew Point Humidity Pressure Visibility Wind Dir Wind Speed Gust Speed Precip Events Conditions
12:15 AM 47.5 °F 39.9 °F 75% 29.69 in 10.0 mi Calm Calm - N/A   Clear
12:35 AM 45.7 °F 39.6 °F 79% 29.69 in 10.0 mi Calm Calm - N/A   Clear
12:55 AM 45.0 °F 39.4 °F 81% 29.68 in 10.0 mi Calm Calm - N/A   Clear
1:15 AM 44.6 °F 39.2 °F 81% 29.68 in 10.0 mi Calm Calm - N/A   Clear
1:35 AM 44.2 °F 39.4 °F 83% 29.67 in 10.0 mi Calm Calm - N/A   Clear
1:55 AM 44.4 °F 39.9 °F 84% 29.67 in 10.0 mi Calm Calm - N/A   Clear
2:15 AM 44.1 °F 40.1 °F 86% 29.66 in 10.0 mi Calm Calm - N/A   Clear
2:35 AM 44.1 °F 39.9 °F 85% 29.66 in 10.0 mi Calm Calm - N/A   Clear
2:55 AM 43.3 °F 40.3 °F 89% 29.66 in 10.0 mi Calm Calm - N/A   Clear
3:15 AM 42.8 °F 40.6 °F 92% 29.67 in 10.0 mi Calm Calm - N/A   Clear
3:35 AM 42.1 °F 41.7 °F 99% 29.66 in 10.0 mi Calm Calm - N/A   Clear
3:55 AM 41.7 °F 41.7 °F 100% 29.65 in 10.0 mi Calm Calm - N/A   Clear
4:15 AM 41.4 °F 41.4 °F 100% 29.66 in 10.0 mi Calm Calm - N/A   Clear
4:35 AM 41.4 °F 41.4 °F 100% 29.66 in 10.0 mi Calm Calm - N/A   Clear
4:55 AM 42.8 °F 42.8 °F 100% 29.66 in 10.0 mi Calm Calm - N/A   Clear
5:15 AM 42.1 °F 42.1 °F 100% 29.68 in 10.0 mi Calm Calm - N/A   Clear
5:35 AM 42.3 °F 42.3 °F 100% 29.67 in 10.0 mi Calm Calm - N/A   Clear
5:55 AM 41.0 °F 41.0 °F 100% 29.68 in 10.0 mi Calm Calm - N/A   Clear
6:15 AM 41.2 °F 41.2 °F 100% 29.68 in 10.0 mi Calm Calm - N/A   Clear
6:35 AM 41.5 °F 41.5 °F 100% 29.68 in 10.0 mi Calm Calm - N/A   Clear
6:55 AM 43.3 °F 43.3 °F 100% 29.68 in 10.0 mi Calm Calm - N/A   Clear
7:15 AM 46.9 °F 46.9 °F 100% 29.69 in 10.0 mi Calm Calm - N/A   Clear
7:35 AM 50.9 °F 46.8 °F 86% 29.69 in 10.0 mi Calm Calm - N/A   Clear
7:55 AM 55.8 °F 46.0 °F 70% 29.70 in 10.0 mi Calm Calm - N/A   Clear
8:15 AM 59.2 °F 43.2 °F 55% 29.70 in 10.0 mi Calm Calm - N/A   Clear
8:35 AM 62.8 °F 45.0 °F 52% 29.71 in 10.0 mi Calm Calm - N/A   Clear
8:55 AM 68.2 °F 42.6 °F 40% 29.71 in 10.0 mi West 3.5 mph - N/A   Clear
9:15 AM 71.4 °F 39.9 °F 32% 29.71 in 10.0 mi West 3.5 mph - N/A   Clear
9:35 AM 73.4 °F 40.8 °F 31% 29.71 in 10.0 mi West 3.5 mph - N/A   Clear
9:55 AM 73.2 °F 45.3 °F 37% 29.71 in 10.0 mi West 4.6 mph - N/A   Clear
10:15 AM 75.0 °F 43.7 °F 33% 29.70 in 10.0 mi North 4.6 mph - N/A   Clear
10:35 AM 76.5 °F 42.4 °F 30% 29.69 in 10.0 mi Calm Calm - N/A   Clear
10:55 AM 80.1 °F 36.3 °F 21% 29.68 in 10.0 mi Calm Calm - N/A   Clear
11:15 AM 81.7 °F 35.1 °F 19% 29.67 in 10.0 mi Calm Calm - N/A   Clear
11:35 AM 81.9 °F 35.4 °F 19% 29.66 in 10.0 mi Calm Calm - N/A   Clear
11:55 AM 81.5 °F 34.9 °F 19% 29.64 in 10.0 mi NNW 3.5 mph - N/A   Clear
12:15 PM 81.5 °F 35.4 °F 19% 29.63 in 10.0 mi Calm Calm - N/A   Clear
12:35 PM 83.1 °F 32.7 °F 16% 29.63 in 10.0 mi WNW 3.5 mph - N/A   Clear
12:55 PM 83.7 °F 33.1 °F 16% 29.62 in 10.0 mi Calm Calm - N/A   Clear
1:15 PM 84.4 °F 36.9 °F 18% 29.61 in 10.0 mi South 4.6 mph - N/A   Clear
1:35 PM 85.1 °F 34.2 °F 16% 29.60 in 10.0 mi SSW 5.8 mph - N/A   Clear
1:55 PM 86.2 °F 35.2 °F 16% 29.60 in 10.0 mi SSW 4.6 mph - N/A   Clear
2:15 PM 86.2 °F 33.1 °F 15% 29.60 in 10.0 mi West 6.9 mph - N/A   Clear
2:35 PM 84.9 °F 31.5 °F 15% 29.60 in 10.0 mi WSW 5.8 mph - N/A   Clear
2:55 PM 84.4 °F 33.3 °F 16% 29.60 in 10.0 mi Calm Calm - N/A   Clear
3:15 PM 83.1 °F 32.0 °F 16% 29.60 in 10.0 mi WSW 4.6 mph - N/A   Clear
3:35 PM 80.8 °F 33.3 °F 18% 29.60 in 10.0 mi Calm Calm - N/A   Clear
3:55 PM 77.9 °F 38.7 °F 24% 29.60 in 10.0 mi Calm Calm - N/A   Clear
4:15 PM 73.2 °F 41.9 °F 32% 29.60 in 10.0 mi Calm Calm - N/A   Clear
4:35 PM 69.1 °F 41.5 °F 37% 29.61 in 10.0 mi South 3.5 mph - N/A   Clear
4:55 PM 66.7 °F 40.3 °F 38% 29.61 in 10.0 mi South 4.6 mph - N/A   Clear
5:15 PM 66.9 °F 37.8 °F 34% 29.62 in 10.0 mi South 4.6 mph - N/A   Clear
5:35 PM 63.9 °F 38.3 °F 39% 29.63 in 10.0 mi South 4.6 mph - N/A   Clear
5:55 PM 64.2 °F 40.1 °F 41% 29.64 in 10.0 mi South 4.6 mph - N/A   Clear
6:15 PM 66.0 °F 40.3 °F 39% 29.64 in 10.0 mi South 5.8 mph - N/A   Clear
6:35 PM 66.6 °F 42.6 °F 42% 29.65 in 10.0 mi SSW 4.6 mph - N/A   Clear
6:55 PM 69.3 °F 41.2 °F 36% 29.65 in 10.0 mi SSW 4.6 mph - N/A   Clear
7:15 PM 70.7 °F 39.4 °F 32% 29.66 in 10.0 mi SSW 4.6 mph - N/A   Clear
7:35 PM 70.5 °F 38.3 °F 31% 29.66 in 10.0 mi SSW 5.8 mph - N/A   Clear
7:55 PM 69.6 °F 38.1 °F 32% 29.67 in 10.0 mi SSW 4.6 mph - N/A   Clear
8:15 PM 70.0 °F 37.9 °F 31% 29.67 in 10.0 mi SSW 5.8 mph - N/A   Clear
8:35 PM 69.3 °F 37.8 °F 32% 29.67 in 10.0 mi SSW 4.6 mph - N/A   Clear
8:55 PM 69.8 °F 37.6 °F 31% 29.67 in 10.0 mi SW 5.8 mph - N/A   Clear
9:15 PM 69.3 °F 38.7 °F 33% 29.67 in 10.0 mi SSW 4.6 mph - N/A   Clear
9:35 PM 69.1 °F 40.1 °F 35% 29.67 in 10.0 mi SW 5.8 mph - N/A   Clear
9:55 PM 69.1 °F 40.3 °F 35% 29.68 in 10.0 mi SW 5.8 mph - N/A   Clear
10:15 PM 70.0 °F 41.0 °F 35% 29.68 in 10.0 mi SW 4.6 mph - N/A   Clear
10:35 PM 69.4 °F 41.7 °F 37% 29.67 in 10.0 mi SW 4.6 mph - N/A   Clear
10:55 PM 68.9 °F 41.9 °F 37% 29.67 in 10.0 mi Calm Calm - N/A   Clear
11:15 PM 68.9 °F 42.8 °F 39% 29.67 in 10.0 mi Calm Calm - N/A   Clear
11:35 PM 68.0 °F 41.9 °F 39% 29.66 in 10.0 mi SSW 3.5 mph - N/A   Clear
11:55 PM 68.7 °F 40.8 °F 36% 29.67 in 10.0 mi SW 4.6 mph - N/A   Clear